ARBO2: Arbuckle Lake

Data processed at Fri Mar 09 2018 23:11


All information presented herein is the property of the government of the United States of America and may be revised or deleted at any time without prior notice.
Dissemination of this information without the expressed written consent of the Public Affairs Office, Tulsa District U.S. Army Corps of Engineers is strictly prohibited.
These data are gathered electronically and, as presented, have not undergone any form of quality control. These data are not guaranteed to be valid or correct.
Go to home page.
Go to station list.

Upstream stations:

Downstream station:
Previous Day
Next Day
Current Day
    
SHEF ID:       ARBO2     Arbuckle Lake
STATION TYPE:  RESERVOIR
Normal Pool:  Bottom =   827.00, Top =   872.00

               PRECIP PRECIP(A) ELEVATION   STORAGE    INFLOW   RELEASE   VOLTAGE  BAT-LOAD
                   in        in        ft     ac-ft       cfs       cfs      volt      volt
              Ccp-Rev   Ccp-Rev   Ccp-Rev   Ccp-Rev  Regi-Rev  Regi-Rev   Ccp-Rev   Ccp-Rev
(US/Central)
03/07 00:00      0.00      ----    873.00     74776         7        97     14.10     13.42
03/07 01:00      0.00      ----    872.99     74752         6        97     14.10     13.48
03/07 02:00      0.00      ----    873.00     74776         6        97     14.10     13.07
03/07 03:00      0.00      ----    872.98     74728         0        97     14.10     13.42
03/07 04:00      0.00      ----    872.98     74728         0        97     14.10     13.42
03/07 05:00      0.00      ----    872.98     74728         0        97     14.10     13.42
03/07 06:00      0.00      ----    872.98     74728        77        97     14.10     13.42
03/07 07:00      0.00      ----    872.97     74705        96        97     14.10     13.42
03/07 08:00      0.00      ----    872.98     74728       116        97     14.10     13.42
03/07 09:00      0.00      ----    872.98     74728       135        97     14.10     13.42
03/07 10:00      0.00      ----    872.98     74728       212        97     14.10     13.42
03/07 11:00      0.00      ----    872.98     74728       135        97     14.10     13.36
03/07 12:00      0.00      ----    872.99     74752       116        97     14.10     13.42
03/07 13:00      0.00      ----    872.98     74728        97        97     14.10     13.42
03/07 14:00      0.00      ----    872.98     74728        77        97     14.10     13.42
03/07 15:00      0.00      ----    872.98     74728         1        97     14.10     13.42
03/07 16:00      0.00      ----    872.97     74705         1        97     14.10     13.42
03/07 17:00      0.00      ----    872.97     74705        20        97     14.10     13.42
03/07 18:00      0.00      ----    872.97     74705        39        97     14.10     13.42
03/07 19:00      0.00      ----    872.97     74705        39        97     14.10     12.95
03/07 20:00      0.00      ----    872.97     74705        39        97     14.10     13.42
03/07 21:00      0.00      ----    872.97     74705        39        97     14.10     13.42
03/07 22:00      0.00      ----    872.96     74681        20        97     14.10     13.42
03/07 23:00      0.00      ----    872.96     74681         1        97     14.10     13.42